Location: Unspecified
(0.0000°N, 0.0000°E)
Time: 18:08:16
(UTC+00:00)

Vanguard 1 - Pass Details

Date: 17 April 2026
Orbit: 654 x 3817 km, 34.2° (Epoch: 18 May)

Event Time Altitude Azimuth Distance (km) Brightness Sun altitude
Rises 00:48:29 0° 291° (WNW) 7,875 14.6 -74.0°
Reaches altitude 10° 00:57:20 10° 308° (NW) 6,906 14.2 -72.3°
Maximum altitude 01:11:02 18° 345° (NNW) 5,806 13.9 -69.4°
Drops below altitude 10° 01:22:34 10° 24° (NNE) 5,730 14.1 -66.9°
Sets 01:28:46 0° 42° (NE) 6,164 14.5 -65.5°
